Location: Katowice
(50.2611°N, 19.0242°E)
Time: 20:48:23
(UTC+02:00)

Explorer 7 - Pass Details

Date: 02 September 2019
Orbit: 485 x 680 km, 50.3° (Epoch: 18 October)

Event Time Altitude Azimuth Distance (km) Brightness Sun altitude
Rises 09:02:12 0° 268° (W) 3,032 10.1 27.8°
Reaches altitude 10° 09:04:35 10° 269° (W) 2,110 9.4 28.2°
Maximum altitude 09:09:30 88° 357° (N) 668 7.7 28.9°
Drops below altitude 10° 09:14:14 10° 89° (E) 2,034 10.9 29.6°
Sets 09:16:30 0° 90° (E) 2,915 11.4 29.9°
